Hailey, ID

11:11 AM MDT on August 22, 2017 (GMT -0600)
Friedman Memorial

Weather History for KSUN - March, 2013

Change the Weather History Date:

Saturday, March 2, 2013

  Actual Average Record
Temperature  
Mean Temperature 37 °F -  
Max Temperature 46 °F 38 °F 50 °F (1997)
Min Temperature 28 °F 16 °F 5 °F (2002)
Degree Days  
Heating Degree Days 28    
Moisture  
Dew Point 30 °F    
Average Humidity 85    
Maximum Humidity 93    
Minimum Humidity 61    
Precipitation  
Precipitation 0.00 in - - ()
Sea Level Pressure  
Sea Level Pressure 30.32 in    
Wind  
Wind Speed 6 mph (NW)    
Max Wind Speed 9 mph    
Max Gust Speed -    
Visibility 10 miles    
Events Rain    
Averages and records for this station are not official NWS values.
T = Trace of Precipitation, MM = Missing Value Source: NWS Daily Summary

Daily Weather History Graph

Daily Weather History Graph

Search for Another Location

Airport or City:

Trip Planner

Search our weather history database for the weather conditions in past years. The results will help you decide how hot, cold, wet, or windy it might be!

Date:

Astronomy

Mar. 02, 2013 Rise Set
Actual Time 7:11 AM MST 6:27 PM MST
Civil Twilight 6:42 AM MST 6:56 PM MST
Nautical Twilight 6:09 AM MST 7:29 PM MST
Astronomical Twilight 5:36 AM MST 8:02 PM MST
Moon No Moon Rise 9:31 AM MST (3/2)
Length of Visible Light 12h 13m
Length of Day
11h 16m
Waning Gibbous, 73% of the Moon is Illuminated
Mar 2
Waning Gibbous
Mar 4
Last Quarter
Mar 11
New
Mar 19
First Quarter
Mar 27
Full

Hourly Weather History & Observations

Time (MST) Temp. Windchill Dew Point Humidity Pressure Visibility Wind Dir Wind Speed Gust Speed Precip Events Conditions
12:15 AM 32.0 °F 25.6 °F 30.2 °F 93% 30.48 in 10.0 mi NW 6.9 mph - N/A   Clear
12:35 AM 32.0 °F 28.7 °F 30.2 °F 93% 30.48 in 10.0 mi NW 3.5 mph - N/A   Clear
12:55 AM 32.0 °F 25.6 °F 30.2 °F 93% 30.48 in 10.0 mi NW 6.9 mph - N/A   Clear
1:15 AM 32.0 °F 25.6 °F 30.2 °F 93% 30.48 in 10.0 mi NW 6.9 mph - N/A   Clear
1:35 AM 32.0 °F 25.6 °F 30.2 °F 93% 30.48 in 10.0 mi WNW 6.9 mph - N/A   Clear
1:55 AM 32.0 °F 26.4 °F 28.4 °F 87% 30.47 in 10.0 mi NW 5.8 mph - N/A   Clear
2:15 AM 32.0 °F 25.6 °F 28.4 °F 87% 30.47 in 10.0 mi NW 6.9 mph - N/A   Clear
2:35 AM 32.0 °F - 28.4 °F 87% 30.47 in 10.0 mi Calm Calm - N/A   Clear
2:55 AM 32.0 °F 26.4 °F 28.4 °F 87% 30.46 in 10.0 mi NW 5.8 mph - N/A   Clear
3:15 AM 30.2 °F 22.6 °F 28.4 °F 93% 30.45 in 10.0 mi NW 8.1 mph - N/A   Clear
3:35 AM 32.0 °F 24.2 °F 28.4 °F 87% 30.45 in 10.0 mi NW 9.2 mph - N/A   Clear
3:55 AM 30.2 °F 22.6 °F 28.4 °F 93% 30.44 in 10.0 mi NW 8.1 mph - N/A   Clear
4:15 AM 30.2 °F 22.6 °F 28.4 °F 93% 30.44 in 10.0 mi NW 8.1 mph - N/A   Clear
4:35 AM 30.2 °F 22.6 °F 28.4 °F 93% 30.44 in 10.0 mi NW 8.1 mph - N/A   Clear
4:55 AM 30.2 °F 22.6 °F 26.6 °F 86% 30.44 in 10.0 mi NW 8.1 mph - N/A   Clear
5:15 AM 30.2 °F 23.4 °F 26.6 °F 86% 30.44 in 10.0 mi NW 6.9 mph - N/A   Clear
5:35 AM 30.2 °F 21.9 °F 26.6 °F 86% 30.44 in 10.0 mi NW 9.2 mph - N/A   Clear
5:55 AM 30.2 °F 21.9 °F 26.6 °F 86% 30.43 in 10.0 mi NW 9.2 mph - N/A   Clear
6:50 AM 30.2 °F 21.9 °F 24.8 °F 80% 30.42 in 10.0 mi NW 9.2 mph - N/A   Scattered Clouds
7:50 AM 28.4 °F 21.2 °F 24.8 °F 86% 30.41 in 10.0 mi WNW 6.9 mph - N/A   Scattered Clouds
8:47 AM 30.2 °F 22.6 °F 24.8 °F 80% 30.40 in 10.0 mi WNW 8.1 mph - N/A   Scattered Clouds
10:47 AM 37.4 °F 33.8 °F 28.4 °F 70% 30.36 in 10.0 mi NW 4.6 mph - N/A   Mostly Cloudy
11:47 AM 44.6 °F 40.7 °F 32.0 °F 61% 30.34 in 10.0 mi WNW 6.9 mph - N/A   Scattered Clouds
12:47 PM 46.4 °F - 33.8 °F 62% 30.30 in 10.0 mi Calm Calm - N/A   Mostly Cloudy
1:50 PM 42.8 °F 37.5 °F 35.6 °F 76% 30.26 in 10.0 mi ESE 9.2 mph - N/A   Mostly Cloudy
2:50 PM 42.8 °F 38.0 °F 35.6 °F 76% 30.24 in 10.0 mi ESE 8.1 mph - N/A   Overcast
3:50 PM 42.8 °F 37.5 °F 35.6 °F 76% 30.18 in 10.0 mi ESE 9.2 mph - N/A   Overcast
6:50 PM 37.4 °F - 33.8 °F 87% 30.15 in 10.0 mi Calm Calm - N/A   Overcast
7:47 PM 37.4 °F - 33.8 °F 87% 30.13 in 10.0 mi Calm Calm - N/A   Mostly Cloudy
8:47 PM 37.4 °F - 33.8 °F 87% 30.12 in 10.0 mi Calm Calm - N/A   Mostly Cloudy
9:55 PM 35.6 °F 30.7 °F 33.8 °F 93% 30.09 in 10.0 mi NW 5.8 mph - N/A   Mostly Cloudy
10:15 PM 35.6 °F 31.7 °F 32.0 °F 87% 30.08 in 10.0 mi NW 4.6 mph - N/A   Overcast
10:35 PM 35.6 °F 31.7 °F 32.0 °F 87% 30.07 in 10.0 mi NNW 4.6 mph - N/A   Overcast
10:47 PM 35.6 °F 30.7 °F 33.8 °F 93% 30.07 in 10.0 mi NW 5.8 mph - N/A   Mostly Cloudy
10:55 PM 35.6 °F 29.2 °F 32.0 °F 87% 30.08 in 10.0 mi NW 8.1 mph - N/A   Light Drizzle
11:15 PM 35.6 °F 29.2 °F 32.0 °F 87% 30.07 in 10.0 mi NW 8.1 mph - N/A Rain Light Rain
11:35 PM 37.4 °F 33.8 °F 32.0 °F 81% 30.06 in 10.0 mi NW 4.6 mph - N/A   Overcast
11:55 PM 35.6 °F 30.7 °F 32.0 °F 87% 30.06 in 10.0 mi North 5.8 mph - N/A   Overcast